TKJ5NM LTFH-LTAC

Flight info

Callsign TKJ5NM
Flight time 0h 37m
Altitude 30000
Route HAVZA1A/31 HAVZA UW71 ILHAN
Aircraft A320/M-SDE3FGHIRWY/LB1

Departure

Time 2026-04-23 20:07
Airport Samsun-Çarşamba Airport (LTFH)

Arrival

Time 2026-04-23 20:44
Airport Esenboğa International Airport (LTAC)
Time Latitude Longitude Altitude Speed Heading
2026-04-23 19:50 41.25835 36.55551 63 ft 0 kts 224°
2026-04-23 20:00 41.25848 36.55569 62 ft 4 kts 225°
2026-04-23 20:01 41.25863 36.55589 59 ft 4 kts 235°
2026-04-23 20:01 41.25873 36.55620 62 ft 4 kts 272°
2026-04-23 20:01 41.25866 36.55648 63 ft 1 kts 313°
2026-04-23 20:01 41.25866 36.55649 63 ft 0 kts 313°
2026-04-23 20:04 41.25866 36.55648 63 ft 1 kts 313°
2026-04-23 20:04 41.25891 36.55612 60 ft 10 kts 313°
2026-04-23 20:04 41.25950 36.55529 60 ft 14 kts 314°
2026-04-23 20:04 41.26028 36.55420 61 ft 18 kts 313°
2026-04-23 20:05 41.26101 36.55316 59 ft 12 kts 313°
2026-04-23 20:05 41.26165 36.55232 60 ft 13 kts 328°
2026-04-23 20:05 41.26253 36.55274 58 ft 14 kts 43°
2026-04-23 20:05 41.26312 36.55350 59 ft 12 kts 44°
2026-04-23 20:06 41.26343 36.55451 57 ft 14 kts 109°
2026-04-23 20:06 41.26308 36.55511 59 ft 2 kts 133°
2026-04-23 20:06 41.26171 36.55700 58 ft 73 kts 134°
2026-04-23 20:06 41.25625 36.56466 28 ft 150 kts 133°
2026-04-23 20:07 41.24812 36.57616 393 ft 184 kts 131°
2026-04-23 20:07 41.24002 36.59088 995 ft 210 kts 124°
2026-04-23 20:07 41.23161 36.60765 1599 ft 227 kts 123°
2026-04-23 20:07 41.22255 36.62617 2093 ft 251 kts 122°
2026-04-23 20:08 41.21294 36.64611 2921 ft 259 kts 122°
2026-04-23 20:08 41.20315 36.66650 3882 ft 264 kts 123°
2026-04-23 20:08 41.19426 36.68788 4851 ft 268 kts 108°
2026-04-23 20:08 41.19383 36.71260 5726 ft 276 kts 73°
2026-04-23 20:09 41.20404 36.73411 6558 ft 281 kts 38°
2026-04-23 20:09 41.22154 36.74476 7363 ft 280 kts
2026-04-23 20:09 41.24036 36.74092 8215 ft 275 kts 329°
2026-04-23 20:09 41.25406 36.72417 9077 ft 269 kts 296°
2026-04-23 20:10 41.25804 36.70876 9675 ft 268 kts 277°
2026-04-23 20:10 41.25890 36.67500 10415 ft 286 kts 269°
2026-04-23 20:10 41.25617 36.64811 10609 ft 309 kts 255°
2026-04-23 20:10 41.25002 36.62000 11072 ft 321 kts 254°
2026-04-23 20:11 41.24356 36.59136 11781 ft 325 kts 254°
2026-04-23 20:11 41.23703 36.56260 12539 ft 326 kts 254°
2026-04-23 20:11 41.23045 36.53364 13295 ft 328 kts 254°
2026-04-23 20:11 41.22382 36.50450 14036 ft 330 kts 254°
2026-04-23 20:12 41.21718 36.47529 14760 ft 330 kts 253°
2026-04-23 20:12 41.21058 36.44612 15477 ft 329 kts 253°
2026-04-23 20:12 41.20402 36.41698 16163 ft 329 kts 253°
2026-04-23 20:12 41.19744 36.38780 16873 ft 329 kts 253°
2026-04-23 20:13 41.19088 36.35872 17615 ft 329 kts 253°
2026-04-23 20:13 41.18431 36.32969 18365 ft 328 kts 252°
2026-04-23 20:13 41.17776 36.30075 18982 ft 328 kts 252°
2026-04-23 20:13 41.17116 36.27162 19581 ft 330 kts 252°
2026-04-23 20:14 41.16451 36.24239 20159 ft 332 kts 251°
2026-04-23 20:14 41.15782 36.21300 20715 ft 334 kts 251°
2026-04-23 20:14 41.15115 36.18377 21245 ft 337 kts 251°
2026-04-23 20:14 41.14425 36.15360 21774 ft 339 kts 250°
2026-04-23 20:15 41.13737 36.12364 22290 ft 341 kts 250°
2026-04-23 20:15 41.13053 36.09387 22785 ft 343 kts 250°
2026-04-23 20:15 41.12354 36.06349 23282 ft 345 kts 250°
2026-04-23 20:15 41.11655 36.03294 23729 ft 348 kts 250°
2026-04-23 20:16 41.10948 36.00212 24105 ft 351 kts 251°
2026-04-23 20:16 41.10233 35.97110 24512 ft 353 kts 251°
2026-04-23 20:16 41.09509 35.93983 24918 ft 355 kts 251°
2026-04-23 20:16 41.08745 35.90876 25349 ft 355 kts 249°
2026-04-23 20:17 41.07887 35.87800 25769 ft 356 kts 248°
2026-04-23 20:17 41.06975 35.84747 26174 ft 357 kts 247°
2026-04-23 20:17 41.06040 35.81691 26603 ft 359 kts 247°
2026-04-23 20:17 41.05101 35.78623 27037 ft 360 kts 248°
2026-04-23 20:18 41.04167 35.75537 27457 ft 362 kts 248°
2026-04-23 20:18 41.03238 35.72432 27865 ft 363 kts 248°
2026-04-23 20:18 41.02315 35.69307 28243 ft 365 kts 248°
2026-04-23 20:18 41.01401 35.66167 28597 ft 367 kts 249°
2026-04-23 20:19 41.00497 35.62993 28971 ft 369 kts 249°
2026-04-23 20:19 40.99599 35.59815 29466 ft 368 kts 249°
2026-04-23 20:19 40.98704 35.56650 29894 ft 367 kts 249°
2026-04-23 20:20 40.96916 35.50379 29977 ft 362 kts 249°
2026-04-23 20:20 40.95124 35.44159 29971 ft 362 kts 249°
2026-04-23 20:21 40.93332 35.37946 29970 ft 362 kts 249°
2026-04-23 20:21 40.91538 35.31723 29969 ft 362 kts 249°
2026-04-23 20:22 40.89740 35.25516 29991 ft 362 kts 249°
2026-04-23 20:22 40.87940 35.19312 29978 ft 362 kts 249°
2026-04-23 20:23 40.86139 35.13103 29958 ft 362 kts 249°
2026-04-23 20:23 40.84329 35.06886 29935 ft 363 kts 249°
2026-04-23 20:24 40.82509 35.00669 29937 ft 363 kts 249°
2026-04-23 20:24 40.80684 34.94454 29939 ft 363 kts 249°
2026-04-23 20:25 40.78854 34.88226 29941 ft 363 kts 249°
2026-04-23 20:25 40.77943 34.85120 29678 ft 360 kts 249°
2026-04-23 20:25 40.77039 34.82040 28688 ft 362 kts 249°
2026-04-23 20:25 40.76129 34.78970 27992 ft 364 kts 249°
2026-04-23 20:26 40.75196 34.75846 27526 ft 368 kts 248°
2026-04-23 20:26 40.74255 34.72707 27106 ft 368 kts 248°
2026-04-23 20:26 40.73314 34.69573 26686 ft 367 kts 248°
2026-04-23 20:26 40.72377 34.66459 26279 ft 365 kts 248°
2026-04-23 20:27 40.71441 34.63348 25877 ft 364 kts 248°
2026-04-23 20:27 40.70508 34.60260 25477 ft 362 kts 248°
2026-04-23 20:27 40.69579 34.57185 25072 ft 361 kts 248°
2026-04-23 20:27 40.68650 34.54116 24693 ft 359 kts 248°
2026-04-23 20:28 40.67729 34.51068 24310 ft 358 kts 248°
2026-04-23 20:28 40.66810 34.48026 23934 ft 356 kts 248°
2026-04-23 20:28 40.65896 34.45005 23532 ft 354 kts 248°
2026-04-23 20:28 40.64983 34.41986 23091 ft 355 kts 248°
2026-04-23 20:29 40.64070 34.38968 22649 ft 353 kts 248°
2026-04-23 20:29 40.63164 34.35971 22220 ft 351 kts 248°
2026-04-23 20:29 40.62263 34.32988 21789 ft 349 kts 248°
2026-04-23 20:29 40.61364 34.30017 21366 ft 347 kts 248°
2026-04-23 20:30 40.60468 34.27077 20963 ft 345 kts 248°
2026-04-23 20:30 40.58691 34.21254 20131 ft 341 kts 248°
2026-04-23 20:30 40.57809 34.18358 19731 ft 339 kts 248°
2026-04-23 20:31 40.56932 34.15485 19343 ft 338 kts 248°
2026-04-23 20:31 40.56058 34.12630 18946 ft 336 kts 248°
2026-04-23 20:31 40.55186 34.09784 18565 ft 335 kts 248°
2026-04-23 20:31 40.54318 34.06954 18174 ft 333 kts 248°
2026-04-23 20:32 40.53451 34.04136 17742 ft 332 kts 248°
2026-04-23 20:32 40.52584 34.01314 17297 ft 333 kts 248°
2026-04-23 20:32 40.51716 33.98498 16879 ft 333 kts 248°
2026-04-23 20:32 40.50844 33.95675 16461 ft 334 kts 249°
2026-04-23 20:33 40.49971 33.92842 16043 ft 335 kts 249°
2026-04-23 20:33 40.49096 33.90008 15647 ft 336 kts 249°
2026-04-23 20:33 40.48216 33.87160 15241 ft 337 kts 249°
2026-04-23 20:33 40.47332 33.84307 14828 ft 337 kts 249°
2026-04-23 20:34 40.46747 33.82413 14575 ft 338 kts 249°
2026-04-23 20:34 40.45861 33.79543 14178 ft 339 kts 249°
2026-04-23 20:34 40.44678 33.75729 13657 ft 340 kts 250°
2026-04-23 20:34 40.43786 33.72853 13224 ft 340 kts 250°
2026-04-23 20:35 40.42897 33.69986 12800 ft 339 kts 250°
2026-04-23 20:35 40.42294 33.68047 12505 ft 338 kts 250°
2026-04-23 20:35 40.41406 33.65197 12096 ft 337 kts 249°
2026-04-23 20:35 40.40520 33.62356 11686 ft 336 kts 249°
2026-04-23 20:36 40.39646 33.59553 11318 ft 335 kts 249°
2026-04-23 20:36 40.38752 33.56687 11061 ft 335 kts 249°
2026-04-23 20:36 40.37868 33.53856 10803 ft 335 kts 249°
2026-04-23 20:36 40.36984 33.51029 10556 ft 336 kts 249°
2026-04-23 20:37 40.36109 33.48235 10316 ft 335 kts 249°
2026-04-23 20:37 40.35224 33.45411 10072 ft 333 kts 249°
2026-04-23 20:37 40.34356 33.42650 9823 ft 321 kts 249°
2026-04-23 20:37 40.33514 33.39980 9556 ft 312 kts 249°
2026-04-23 20:38 40.32698 33.37392 9299 ft 304 kts 249°
2026-04-23 20:38 40.31902 33.34872 9065 ft 295 kts 249°
2026-04-23 20:38 40.31126 33.32412 8828 ft 288 kts 249°
2026-04-23 20:38 40.30370 33.30018 8603 ft 281 kts 249°
2026-04-23 20:39 40.29632 33.27676 8392 ft 275 kts 249°
2026-04-23 20:39 40.28910 33.25387 8181 ft 269 kts 249°
2026-04-23 20:39 40.28201 33.23147 7972 ft 264 kts 249°
2026-04-23 20:39 40.27502 33.20947 7730 ft 260 kts 249°
2026-04-23 20:40 40.26809 33.18769 7400 ft 260 kts 249°
2026-04-23 20:40 40.26121 33.16598 7022 ft 255 kts 249°
2026-04-23 20:40 40.25450 33.14479 6562 ft 250 kts 249°
2026-04-23 20:40 40.24783 33.12380 6048 ft 248 kts 248°
2026-04-23 20:41 40.23941 33.10451 5640 ft 242 kts 229°
2026-04-23 20:41 40.22684 33.09084 5308 ft 227 kts 217°
2026-04-23 20:41 40.21457 33.07917 5009 ft 208 kts 217°
2026-04-23 20:41 40.20338 33.06847 4738 ft 190 kts 217°
2026-04-23 20:42 40.19326 33.05880 4491 ft 168 kts 217°
2026-04-23 20:42 40.18441 33.05034 4222 ft 149 kts 217°
2026-04-23 20:42 40.17651 33.04280 4001 ft 133 kts 218°
2026-04-23 20:42 40.16876 33.03537 3849 ft 152 kts 217°
2026-04-23 20:43 40.16036 33.02735 3636 ft 146 kts 218°
2026-04-23 20:43 40.15224 33.01958 3439 ft 143 kts 218°
2026-04-23 20:43 40.14424 33.01192 3255 ft 142 kts 217°
2026-04-23 20:43 40.13629 33.00437 3144 ft 134 kts 218°
2026-04-23 20:44 40.12976 32.99814 3123 ft 93 kts 216°
2026-04-23 20:44 40.12589 32.99444 3121 ft 50 kts 216°
2026-04-23 20:44 40.12363 32.99246 3118 ft 30 kts 203°
2026-04-23 20:44 40.12209 32.99203 3117 ft 18 kts 187°
2026-04-23 20:45 40.12101 32.99188 3117 ft 16 kts 186°
2026-04-23 20:45 40.11983 32.99164 3115 ft 19 kts 199°
2026-04-23 20:45 40.11867 32.99063 3114 ft 21 kts 216°
2026-04-23 20:45 40.11768 32.99098 3113 ft 16 kts 137°
2026-04-23 20:46 40.11675 32.99098 3113 ft 9 kts 224°
2026-04-23 20:46 40.11643 32.99086 3113 ft 6 kts 165°
2026-04-23 20:46 40.11620 32.99106 3113 ft 3 kts 146°
2026-04-23 20:46 40.11605 32.99119 3113 ft 2 kts 146°
2026-04-23 20:47 40.11602 32.99122 3113 ft 0 kts 146°